Home > Weather > Dammam > Past weeks

Flag for Saudi Arabia Weather for the Past 2 Weeks in Dammam, Saudi Arabia

Now
81 °F

Clear.


Feels Like: 82 °F
Forecast: 77 / 98 °F
Wind: 8 mph from East

Location: Dhahran

Current Time: Apr 29, 2016 at 1:18:56 AM

Latest Report: Apr 29, 2016 at 12:00 AM


Visibility: 10 mi

Pressure: 29.68 "Hg

Humidity: 58%

Dew Point: 64 °F

Location of DammamLocation

Historic Weather in Dammam — Graph

°F

Dammam Temperature Yesterday

Maximum temperature yesterday: 100 °F (at 2:00 PM)
Minimum temperature yesterday: 73 °F (at 4:00 AM)
Average temperature yesterday: 88 °F

High & Low Weather Summary for the Past Weeks

 TemperatureHumidityPressure
High106 °F (Apr 26, 1:00 PM)83% (Apr 15, 4:00 AM)29.98 "Hg (Apr 15, 4:00 AM)
Low61 °F (Apr 24, 4:00 AM)7% (Apr 18, 2:00 PM)29.62 "Hg (Apr 14, 2:00 AM)
Average82 °F39%29.81 "Hg
* Reported Midnight between Apr 13 and Apr 14 — Midnight between Apr 28 and Apr 29, Dammam, Weather by CustomWeather, © 2016

Note: Actual official high and low records may vary slightly from our data, if they occured in-between our weather recording intervals... More about our weather records

Advertising

Dammam Weather History for the Previous 24 Hours

Scroll right to see more
 ConditionsComfort  
Time TempWeatherWind HumidityBarometerVisibility
12:00 AM
Fri, Apr 29
81 °FClear.8 mph58%29.68 "Hg10 mi
11:00 PM
Thu, Apr 28
82 °FClear.9 mph58%29.68 "Hg10 mi
10:00 PM82 °FClear.10 mph62%29.71 "Hg10 mi
9:00 PM84 °FClear.12 mph58%29.71 "Hg10 mi
8:00 PM84 °FClear.13 mph55%29.68 "Hg10 mi
7:00 PM88 °FClear.14 mph40%29.68 "Hg10 mi
6:00 PM90 °FSunny.14 mph41%29.68 "Hg10 mi
5:00 PM95 °FSunny.12 mph22%29.68 "Hg10 mi
4:00 PM100 °FSunny.13 mph7%29.68 "Hg10 mi
3:00 PM100 °FSunny.13 mph8%29.68 "Hg10 mi
2:00 PM100 °FSunny.13 mph10%29.71 "Hg10 mi
1:00 PM99 °FSunny.13 mph12%29.74 "Hg10 mi
12:00 PM97 °FSunny.12 mph12%29.74 "Hg10 mi
11:00 AM97 °FClear.13 mph16%29.77 "Hg5 mi
10:00 AM93 °FClear.12 mph17%29.80 "Hg4 mi
8:00 AM84 °FClear.6 mph51%29.80 "Hg4 mi
7:00 AM79 °FClear.5 mph65%29.77 "Hg5 mi
6:00 AM73 °FClear.3 mph69%29.77 "Hg4 mi
5:00 AM73 °FPassing clouds.No wind69%29.74 "Hg4 mi
4:00 AM73 °FClear.2 mph69%29.74 "Hg10 mi
Weather by CustomWeather, © 2016

See weather overviewHow to use our weather pages